DELTA 1 DEB, 42088

Orbit data source: Space-Track

DELTA 1 DEB, 42088 is space debris in SSO originally from a launch on Sun, 15 Dec 1968 UTC launched from the Air Force Western Test Range (AFWTR). Debris objects in space refer to the collection of defunct objects orbiting the Earth. Examples of debris include non-operational satellites, rocket bodies, and fragments generated from explosions, collisions, or faulty payload assembly.

Loading next visibility...
Identifier
42088, 1968-114Q
Orbit
SSO
Last TLE update
9 months ago
Origin
Manufacturer
Aerojet
Mission
Spacecraft
Bus & Motor
Unknown
Mass
Unknown
Launch date (UTC)
1968-12-15 (57 years ago)
Launch vehicle
Unknown
Launch site
Air Force Western Test Range (AFWTR)
Object type
Payload
Rocket body
Debris
Shape & HBR
Unknown
Radar Cross Section
Small (<0.1 m²)

Expand to show TLE details & history

TLE from 9 months ago
0 DELTA 1 DEB
1 42088U 68114Q   24274.08736838  .00000011  00000-0  36304-3 0  9995
2 42088 101.6227 225.7779 0021412  46.4269 313.8575 12.48844283895450
Epoch: 2024-09-30T02:05Z
TLE epoch observation values (Epoch: 2024-09-30T02:05:48.628Z)
Latitude
0.00005°
Longitude
-174.9952°
Altitude
1,460.283 km
Speed
7.138 km/s
True Right ascension
15h 03m 06s
True Declination
0° 00' 00"
Sunlit
Object was in daylight at epoch
Visualization orbit readout
Latitude
-73.0668°
Longitude
133.50799°
Altitude
1,483.68 km
Speed
7.127 km/s
Apparent Right ascension
10h 36m 42s
Apparent Declination
-58° 32' 31"
Sunlit
Object is in daylight
Visualization observer readout
Local Sidereal Time
22:08:38
Azimuth
191.198° SSW
Elevation
-70.844°
Doppler factor
1
Orbital elements
Apogee altitude
1,483.671 km
Perigee altitude
1,450.076 km
Semi-major axis
7,845.011 km
Eccentricity
0.00214
Inclination
101.6227°
RAAN
225.7779°
Arg. of periapsis
46.4269°
True anomaly
Unknown
Mean anomaly
313.8575°
Eccentric anomaly
Unknown
Mean motion
3.12358 °/min
Orbital period
115.25 mins
BSTAR
0.00036304
Loading maneuver chart data...
Loading SW <> Apogee altitude chart data...
Loading historical data...
Loading historical data...
Loading historical data...
Loading historical data...
Loading historical data...
Loading historical data...
Loading historical data...

DELTA 1 DEB Visibility forecast

Observer location: undefined°, undefined°

Span
Click to sort rows by Start time (UTC) header in descending order
Start Az.
Max El. time (UTC)
Max El. Az.
Max El.
End time (UTC)
End Az.
11 mins2025-07-01 11:31:11.334Z350.569° N2025-07-01 11:36:11.334Z311.384° NW21.132°2025-07-01 11:42:11.334Z262.713° W
11 mins2025-07-01 18:47:11.334Z98.798° ESE2025-07-01 18:52:11.334Z55.852° ENE23.714°2025-07-01 18:58:11.334Z6.606° NNE
14 mins2025-07-01 20:38:11.334Z170.054° S2025-07-01 20:44:11.334Z225.397° WSW43.875°2025-07-01 20:52:11.334Z338.957° N
5 mins2025-07-01 22:37:11.334Z257.403° W2025-07-01 22:39:11.334Z272.421° WNW12.98°2025-07-01 22:42:11.334Z294.291° NW
13 mins2025-07-02 08:43:11.334Z36.81° NE2025-07-02 08:49:11.334Z94.61° ESE33.059°2025-07-02 08:56:11.334Z163.451° S
|